Date,TemperatureHighF,TemperatureAvgF,TemperatureLowF,DewpointHighF,DewpointAvgF,DewpointLowF,HumidityHigh,HumidityAvg,HumidityLow,PressureMaxIn,PressureMinIn,WindSpeedMaxMPH,WindSpeedAvgMPH,GustSpeedMaxMPH,PrecipitationSumIn
2013-1-1,17.0,8.8,3.0,12.0,5.1,0.0,92,85,69,0.00,40.00,9,3,19,0.00
2013-1-2,23.0,12.8,4.0,10.0,6.5,-1.0,91,77,52,0.00,40.00,11,5,30,0.00
2013-1-3,24.0,11.5,2.0,7.0,-3.2,-15.0,76,53,31,0.00,40.00,5,3,12,0.00
2013-1-4,44.0,22.0,12.0,12.0,-1.6,-12.0,55,37,15,0.00,40.00,5,2,10,0.01
2013-1-5,27.0,17.2,8.0,12.0,1.2,-9.0,71,50,30,0.00,40.00,7,3,11,0.01
2013-1-6,33.0,26.4,19.0,12.0,3.2,-4.0,52,37,22,0.00,40.00,18,10,29,0.00
2013-1-7,33.0,22.7,16.0,16.0,6.6,-1.0,77,50,32,0.00,40.00,13,7,24,0.00
2013-1-8,33.0,24.1,19.0,26.0,18.3,12.0,93,79,55,0.00,40.00,13,7,32,0.00
2013-1-9,41.0,30.4,21.0,21.0,16.7,9.0,94,61,33,0.00,40.00,16,11,29,0.00
2013-1-10,37.0,34.1,29.0,20.0,11.8,5.0,70,41,29,0.00,40.00,22,16,47,0.00
2013-1-11,29.0,9.5,-6.0,20.0,4.6,-10.0,96,81,62,0.00,40.00,16,7,33,0.00
2013-1-12,3.0,-4.1,-8.0,-2.0,-8.3,-12.0,82,81,78,0.00,40.00,4,2,13,0.00
2013-1-13,6.0,-2.9,-12.0,0.0,-7.6,-16.0,84,80,72,0.00,40.00,5,2,13,0.00
2013-1-14,2.0,-5.1,-11.0,-4.0,-9.8,-15.0,82,79,71,0.00,40.00,12,4,20,0.00
2013-1-15,17.0,6.2,-6.0,10.0,1.5,-10.0,89,81,63,0.00,40.00,8,4,18,0.00
2013-1-16,29.0,16.5,11.0,17.0,10.3,5.0,91,78,54,0.00,40.00,7,4,19,0.00
2013-1-17,33.0,21.8,13.0,16.0,9.2,-1.0,83,60,38,0.00,40.00,11,4,19,0.02
2013-1-18,35.0,25.4,18.0,16.0,7.6,1.0,62,48,32,0.00,40.00,13,6,22,0.02
2013-1-19,34.0,25.8,20.0,15.0,8.4,0.0,62,48,32,0.00,40.00,13,5,21,0.00
2013-1-20,33.0,23.5,16.0,16.0,9.7,5.0,79,56,36,0.00,40.00,15,4,25,0.00
2013-1-21,39.0,25.7,15.0,19.0,9.6,5.0,84,53,28,0.00,40.00,10,5,26,0.00
2013-1-22,39.0,28.7,19.0,15.0,6.5,-5.0,58,40,21,0.00,40.00,10,4,19,0.00
2013-1-23,42.0,33.9,28.0,9.0,2.9,-2.0,36,27,21,0.00,40.00,13,8,29,0.00
2013-1-24,37.0,32.6,29.0,31.0,19.9,7.0,99,63,31,0.00,40.00,18,9,34,0.00
2013-1-25,39.0,30.5,25.0,27.0,24.4,20.0,97,79,49,0.00,40.00,21,12,36,0.00
2013-1-26,41.0,33.1,27.0,30.0,25.6,20.0,93,74,59,0.00,40.00,13,7,26,0.00
2013-1-27,38.0,33.3,30.0,30.0,27.3,25.0,97,79,65,0.00,40.00,15,9,31,0.00
2013-1-28,31.0,22.7,10.0,30.0,21.3,8.0,99,94,79,0.00,40.00,8,3,26,0.00
2013-1-29,24.0,10.1,0.0,16.0,5.9,-2.0,92,84,55,0.00,40.00,17,4,26,0.00
2013-1-30,22.0,13.5,4.0,18.0,9.5,1.0,91,85,74,0.00,40.00,7,4,20,0.00
2013-1-31,38.0,25.4,18.0,25.0,19.2,15.0,95,79,49,0.00,40.00,8,4,21,0.01